Theta_e
284 284 285 285 284 285 284 283 283 283 283 283 283 283 283 284 286 285 285 285 285 286 285 285 286 286 287 286 286 286 286 286 286 286 286 286 286 286 286 286 286 287
283 285 286 285 284 284 283 283 283 282 282 282 283 283 283 284 285 285 284 284 284 284 284 285 285 285 285 285 285 285 285 285 284 287 285 285 285 285 285 286 286 287
282 281 281 281 281 281 282 282 283 282 282 282 282 283 283 284 284 284 283 283 283 283 284 284 284 284 284 284 284 284 283 284 284 284 285 284 285 285 285 285 285 286
282 282 281 282 281 281 282 281 281 281 281 282 281 282 283 284 283 283 283 284 283 283 283 283 283 283 283 283 283 283 283 283 284 284 284 284 284 284 284 285 285 285
281 281 281 281 282 282 281 281 281 281 281 281 281 281 282 281 281 281 282 282 282 282 282 283 283 283 283 283 282 282 283 283 283 283 283 283 283 284 284 284 284 284
280 280 281 281 281 281 280 280 281 281 281 280 281 281 281 281 281 281 282 281 282 282 282 282 282 282 282 282 282 282 282 282 282 282 282 282 282 283 284 284 283 283
280 280 280 280 279 280 280 279 280 281 280 280 280 280 281 281 281 281 281 281 281 282 281 281 282 282 282 282 282 281 282 282 282 282 282 282 282 282 283 283 283 282
280 279 280 280 279 279 279 279 279 280 280 280 279 280 280 280 280 281 281 281 281 281 281 281 281 281 281 281 281 281 281 282 282 281 281 281 281 281 282 282 282 281
279 279 279 279 279 279 279 280 280 280 281 280 280 280 281 280 281 281 281 280 280 280 280 280 281 281 281 281 281 281 280 281 281 281 281 280 280 280 281 281 281 281
279 279 279 279 279 279 279 280 280 280 281 280 280 281 280 281 281 281 281 280 280 280 280 280 280 280 280 281 281 280 280 280 280 280 280 280 280 280 280 280 280 280
279 278 278 279 279 279 279 279 280 280 280 280 280 280 280 281 281 281 280 280 280 280 280 280 280 280 280 280 281 281 280 280 280 280 280 280 280 280 282 281 280 280
279 278 278 278 279 279 279 279 280 280 280 280 280 280 280 280 280 280 280 280 280 280 280 280 280 280 280 280 280 280 280 280 280 280 280 280 280 280 280 280 280 280
279 279 279 279 279 279 279 279 280 280 280 280 280 280 280 279 280 280 280 280 280 280 280 280 280 280 280 280 280 280 279 279 279 279 279 279 280 280 280 280 280 280
279 279 279 279 279 279 279 279 280 280 280 280 280 279 279 279 279 280 280 280 280 280 280 280 280 279 279 279 279 279 279 279 279 279 279 279 279 280 280 280 280 280
279 279 279 279 279 279 279 279 280 279 280 279 279 279 280 280 280 280 279 279 279 279 279 280 280 279 280 280 279 279 280 279 279 279 279 279 279 279 279 280 279 280
279 279 279 279 279 279 279 279 279 279 279 279 279 279 279 279 279 279 279 279 279 279 279 279 279 280 282 284 285 282 281 281 281 280 280 279 279 279 279 279 279 279
278 279 279 278 279 279 279 279 279 279 279 279 279 279 279 279 279 279 279 279 279 278 278 279 279 280 283 284 284 285 282 280 280 279 279 279 278 278 278 278 279 279
279 279 279 279 279 278 279 279 279 279 279 279 279 279 279 279 279 279 279 279 279 278 278 278 278 282 283 284 284 284 284 281 280 279 279 279 278 278 278 278 278 278
279 279 279 279 279 279 279 279 279 279 279 279 279 279 279 279 279 279 278 278 278 278 277 278 278 281 283 283 283 283 284 282 280 279 279 278 278 278 278 278 278 278
279 279 278 279 279 279 279 278 278 278 279 279 279 279 279 278 278 278 278 278 278 277 277 277 277 280 282 283 283 283 283 283 280 279 278 278 278 278 278 277 277 277
279 279 279 279 279 279 279 278 279 279 279 279 279 278 278 278 278 277 277 277 277 277 277 277 278 281 282 282 283 283 283 282 279 279 278 278 277 278 277 277 278 278
279 279 279 279 279 278 278 278 279 279 278 279 278 278 278 278 278 277 277 277 277 277 277 276 277 281 282 282 282 282 283 280 278 278 277 277 277 277 277 278 278 278
279 279 278 278 278 278 278 278 278 278 278 279 278 278 277 277 277 277 277 277 276 277 276 276 276 279 281 281 281 282 281 278 277 277 277 277 277 277 277 277 278 277
279 278 278 278 278 278 278 278 278 278 278 278 277 277 276 276 277 276 277 277 276 276 276 275 276 278 280 281 281 281 281 278 277 277 276 276 276 277 277 277 278 279
278 278 278 278 278 278 278 278 278 278 278 278 277 277 276 276 276 276 276 276 276 276 276 275 275 277 279 280 280 281 280 278 277 277 276 276 276 276 277 277 278 279
278 278 278 278 278 278 278 278 278 277 277 276 276 276 276 276 275 275 275 275 275 275 275 275 275 275 276 279 280 281 281 278 277 276 275 275 276 276 276 277 277 278
Wind_Speed
5 4 5 5 5 5 5 5 5 5 6 6 6 7 7 7 8 8 8 7 7 7 7 7 7 7 7 7 7 7 7 8 8 8 8 9 8 9 9 10 9 8
5 4 4 4 5 5 6 5 6 5 6 6 6 6 7 7 8 7 8 8 8 8 8 8 8 8 7 7 7 8 8 8 9 6 9 11 10 9 9 10 9 9
5 4 4 4 5 5 6 5 5 6 6 7 6 7 6 6 7 7 7 7 8 9 9 9 9 9 9 8 8 7 8 9 9 9 9 10 10 11 11 10 9 9
6 6 5 6 6 6 6 5 6 6 5 6 6 7 6 6 6 8 7 8 8 9 9 8 9 9 8 9 9 8 9 9 9 9 10 9 9 10 11 11 11 11
6 6 6 6 6 6 6 6 8 7 7 7 7 6 6 6 7 7 7 7 7 8 9 9 9 9 9 9 8 9 9 9 9 9 10 11 10 10 10 11 12 14
6 5 5 5 6 6 7 7 7 7 8 8 9 8 8 8 8 9 10 10 10 10 10 10 10 10 9 10 9 9 10 10 10 10 11 12 12 10 10 11 13 14
7 6 6 5 6 6 6 7 7 7 7 7 6 8 8 8 9 10 10 10 10 11 11 12 12 12 11 10 10 12 11 11 12 12 12 12 12 13 11 11 12 13
7 6 6 6 5 6 6 7 7 7 7 6 7 9 7 9 10 9 9 10 10 11 11 11 12 12 12 11 12 13 14 11 12 14 14 14 13 14 14 11 11 13
6 6 6 7 7 8 7 9 8 9 8 8 9 9 8 8 10 11 11 11 10 11 11 11 11 12 11 11 12 13 14 14 13 14 14 16 16 16 16 14 14 13
7 7 6 7 8 8 8 9 9 9 9 9 10 9 10 11 10 11 11 11 12 12 12 12 12 12 12 11 13 13 14 15 15 14 14 15 16 16 16 14 14 15
8 7 7 8 9 8 9 10 9 9 8 9 10 10 10 10 11 10 11 12 12 13 14 14 13 14 14 15 13 13 14 15 15 14 15 15 15 14 14 14 16 16
9 7 8 9 9 9 10 10 10 9 10 9 9 11 11 10 11 11 10 12 13 14 13 14 14 13 14 15 15 14 14 14 15 15 16 16 15 15 15 15 15 18
9 9 9 9 9 10 9 9 10 10 10 11 10 10 11 12 12 12 11 12 13 13 13 14 15 14 14 14 14 15 14 15 14 15 14 14 14 16 16 17 17 15
9 9 9 10 9 9 10 10 10 10 10 10 10 11 12 12 13 13 13 11 13 13 14 13 14 14 13 14 13 15 15 15 15 15 15 16 15 16 16 16 16 17
9 8 8 9 9 10 10 11 11 11 11 10 10 11 11 12 13 13 14 14 14 14 14 13 13 12 10 12 13 14 14 15 16 15 16 15 16 16 15 15 14 14
9 8 9 9 9 11 11 11 10 11 11 11 11 12 12 12 12 13 13 14 15 15 14 13 13 11 16 23 21 18 16 14 13 15 15 16 15 17 17 15 16 16
8 9 9 10 11 10 10 11 12 11 11 11 12 12 13 13 13 14 14 13 14 15 15 14 13 13 21 23 27 30 23 17 16 16 16 17 16 17 16 17 16 16
10 10 10 11 10 10 11 11 11 11 11 12 12 13 13 12 13 14 14 14 13 14 15 14 15 16 24 26 28 31 28 20 16 14 14 15 14 16 15 15 16 16
10 10 11 10 10 10 10 10 11 11 12 13 14 14 13 14 14 14 14 14 14 15 16 15 15 17 24 28 30 31 32 28 17 15 15 14 15 15 15 16 14 16
10 10 11 11 10 10 10 10 11 12 13 13 13 13 13 14 14 15 15 15 15 16 15 15 16 16 25 29 31 33 33 30 18 17 16 15 17 17 15 16 18 15
10 10 11 11 10 10 10 11 12 13 14 13 12 13 13 14 14 15 14 15 15 15 15 16 15 23 28 31 32 34 34 31 18 16 14 15 13 16 16 18 17 16
10 11 11 10 10 10 11 12 13 14 15 14 12 12 12 12 14 13 15 16 16 16 17 17 17 24 29 30 33 33 36 21 16 16 15 14 15 16 15 14 15 16
9 10 10 10 10 11 12 13 14 15 14 12 13 13 13 14 14 15 14 15 17 17 18 18 17 21 27 31 32 35 29 17 15 14 14 15 15 14 13 15 16 16
8 8 9 10 10 12 14 14 14 13 13 11 12 14 15 15 15 15 15 15 17 18 17 18 18 20 28 31 33 34 29 20 15 13 14 14 15 13 14 15 18 27
7 8 9 10 11 13 13 15 14 13 12 11 12 13 14 14 14 14 15 15 15 16 18 19 18 19 26 30 33 33 27 18 15 13 15 14 12 15 13 16 14 18
7 8 9 10 12 13 14 14 13 12 13 13 14 13 14 14 14 14 16 15 13 14 14 15 17 17 19 29 31 33 34 24 16 13 14 17 15 12 16 13 16 16
Wind_Direction
312 318 313 319 316 313 309 312 314 316 310 311 315 312 317 312 318 324 324 326 326 327 326 327 327 327 327 330 332 330 332 332 330 326 329 329 330 333 333 333 334 332
293 292 296 301 300 304 304 299 297 303 301 303 299 302 301 309 309 317 318 319 319 320 321 321 320 317 317 319 322 324 323 327 324 324 326 326 324 324 323 325 324 324
302 305 295 285 279 282 281 284 284 284 286 286 294 294 295 300 303 306 309 309 314 315 317 315 312 311 311 311 312 314 315 316 318 319 320 319 320 320 319 316 315 319
299 300 300 300 298 294 296 298 292 284 280 288 283 283 285 289 292 297 298 304 305 304 303 304 302 302 302 303 306 306 307 306 306 311 311 311 313 311 312 314 312 311
281 292 296 297 296 296 299 303 302 301 302 294 299 296 296 296 300 298 300 300 300 298 297 295 294 293 294 294 295 299 301 304 306 307 307 307 308 309 309 310 310 309
276 269 276 277 283 288 292 290 289 293 295 302 297 304 300 302 304 304 303 303 302 300 298 296 293 292 291 292 293 289 294 299 301 300 300 301 303 302 303 304 305 303
272 276 277 275 277 275 272 274 277 277 275 271 285 284 285 287 286 287 288 288 291 293 294 296 297 297 298 297 297 296 296 296 296 296 295 296 297 297 296 295 296 296
273 273 274 280 282 286 284 281 280 280 279 285 280 280 280 279 280 279 279 279 281 281 282 283 284 285 288 290 292 295 296 296 298 299 298 296 296 295 295 292 289 291
271 275 280 286 290 291 290 290 289 289 290 289 288 288 285 279 280 281 280 281 279 279 279 278 277 279 279 281 282 285 288 290 290 292 294 296 296 295 294 294 290 287
268 269 274 275 278 276 279 279 280 281 283 283 282 285 286 285 283 283 285 283 282 282 281 279 280 280 281 279 281 282 283 286 287 286 286 287 288 289 292 291 289 290
270 268 269 272 271 273 272 274 274 276 276 276 279 280 278 281 282 279 280 281 281 281 282 283 282 284 286 286 284 283 283 286 286 285 284 283 282 281 282 285 287 285
272 272 269 268 270 271 271 272 274 275 275 275 273 276 279 276 276 279 276 277 277 278 278 279 280 280 281 283 284 284 284 283 283 283 284 282 280 280 281 281 285 286
270 269 268 269 269 270 271 273 273 273 274 274 274 274 277 280 279 277 276 275 276 277 278 278 280 280 279 279 280 281 281 281 282 280 278 280 281 283 283 283 282 281
266 265 267 267 268 270 270 271 272 273 272 272 275 276 276 277 279 280 281 280 279 279 280 280 279 279 277 277 276 280 280 280 279 280 279 278 279 280 280 280 278 280
267 266 265 266 268 268 270 271 271 271 272 272 272 273 274 274 276 278 282 282 280 279 280 279 279 277 275 280 283 280 279 280 281 277 280 280 281 279 276 276 274 273
264 266 267 268 268 268 268 271 272 272 272 273 273 272 274 276 277 277 277 278 281 281 279 278 278 277 278 279 278 282 284 282 279 279 281 282 281 283 281 275 273 273
267 267 268 267 265 268 272 272 273 272 272 273 274 275 276 277 278 279 278 278 280 281 282 281 279 279 279 280 283 285 286 284 282 282 280 281 280 281 283 282 280 277
268 270 269 268 269 270 271 272 273 274 273 274 277 279 278 278 279 278 279 281 281 280 280 281 282 280 282 283 286 287 288 286 284 281 280 280 279 279 280 281 283 285
268 269 269 270 269 270 272 274 275 275 276 277 277 277 281 281 280 281 281 281 281 282 282 282 283 282 284 286 287 288 288 288 285 281 280 279 280 282 282 284 284 284
269 270 271 271 272 273 273 275 275 275 275 275 278 281 280 281 281 281 284 283 283 284 284 283 284 281 284 286 288 289 290 289 285 283 282 279 283 284 285 283 283 280
270 271 272 274 275 276 278 277 277 278 279 280 280 281 284 284 286 288 286 285 285 284 284 285 284 284 287 289 290 290 290 290 287 284 282 283 279 280 278 279 276 276
269 272 274 275 276 278 278 278 278 279 281 283 284 285 283 284 284 284 286 287 286 286 287 285 284 285 288 289 289 290 291 291 287 284 283 278 278 277 275 273 275 274
266 268 271 275 275 279 280 281 283 284 284 287 288 286 288 288 287 287 286 287 287 287 286 285 286 286 286 288 289 291 293 289 285 282 279 280 277 275 276 277 276 275
264 263 267 274 280 282 283 283 283 283 284 289 288 291 290 288 290 288 287 286 287 286 285 287 287 285 286 288 290 292 293 292 288 283 277 278 281 279 279 279 278 278
266 266 270 275 280 282 283 284 286 288 291 291 288 288 287 289 289 288 288 286 283 283 282 282 284 284 285 288 291 293 294 290 288 285 286 285 283 283 277 280 276 278
266 266 271 276 279 282 284 286 291 293 293 292 290 289 291 290 288 287 286 284 283 282 283 281 282 282 283 289 292 294 294 293 291 288 287 287 285 282 286 279 280 279